Wind_Speed
19 20 21 21 21 22 22 23 23 23 22 21 21 21 21 20 19 18 17 15 14 12 11 10 9 8 8 8 8 8 9 10 10 10 9 10 11 11 11 12 11 10 10 11 12 12 9 7 6 5 4 4 4 4 5 6 6 7 7 7 7 8 8 8 8 7 7 8 8 9 10 11 11 11 12 12 13 14 15 16 17 17 18 19 20
16 18 18 19 20 21 23 23 23 23 22 22 22 22 21 20 19 18 18 16 15 13 12 11 10 10 9 9 9 9 10 11 11 11 11 10 10 11 11 11 11 11 10 10 11 11 11 8 6 6 5 5 5 5 5 5 5 5 5 5 6 6 7 8 8 9 9 9 10 10 11 12 12 13 14 14 15 16 18 18 19 20 21 22 23
17 18 18 19 20 22 23 24 24 23 22 22 22 22 22 21 19 18 18 17 16 14 14 13 12 11 11 11 10 10 11 11 11 12 12 10 10 10 10 11 10 10 10 10 10 11 11 9 7 6 5 5 5 5 6 6 6 6 6 6 6 7 7 7 8 9 9 10 11 12 13 14 14 15 16 17 18 18 20 21 21 22 23 24 25
19 19 20 20 21 22 23 24 24 23 22 22 22 22 22 21 20 19 18 17 16 16 15 14 13 12 12 12 12 12 12 11 11 11 11 11 10 9 9 9 10 9 9 10 10 11 11 9 7 6 6 6 6 6 6 7 7 7 7 8 8 8 9 9 9 9 10 11 12 13 14 15 16 17 18 19 20 21 23 24 24 24 25 26 28
20 20 21 21 21 21 22 23 23 23 23 23 23 22 22 21 20 19 19 18 17 17 16 15 14 13 13 13 12 12 12 11 12 12 11 11 10 9 9 9 9 9 9 9 10 10 11 11 8 6 6 6 6 6 7 8 8 9 9 9 10 10 10 11 12 12 12 13 14 14 15 16 18 20 21 22 23 24 26 27 28 27 28 29 30
21 21 22 21 21 21 22 22 23 24 24 24 24 23 22 21 21 20 20 19 18 17 16 15 15 14 14 13 12 12 11 11 12 12 12 11 11 10 10 10 9 9 10 10 10 10 11 11 8 6 6 7 7 6 7 7 8 9 10 11 11 11 12 13 14 14 14 15 16 18 19 20 20 21 23 25 25 26 28 30 30 30 30 31 31
23 23 23 23 23 23 23 24 25 25 25 25 25 24 23 22 22 22 21 20 19 17 17 16 16 16 15 13 12 12 12 12 12 13 13 13 12 11 11 11 11 10 10 11 10 11 11 10 7 5 6 7 7 7 7 7 7 8 10 11 12 12 13 14 15 15 15 16 16 18 20 21 22 22 24 25 25 26 29 31 31 31 33 34 33
24 24 24 24 24 24 25 26 27 26 26 25 24 23 23 23 23 22 21 20 19 18 17 17 17 16 15 14 13 13 12 12 13 13 14 14 13 12 11 12 12 11 11 11 11 11 11 8 5 4 5 6 6 7 7 8 8 9 10 11 12 12 12 14 15 15 15 15 16 17 19 21 23 25 26 27 27 27 30 33 32 32 35 36 35
24 24 24 24 24 25 26 27 27 26 25 24 24 23 23 23 23 22 21 20 19 18 17 17 16 16 15 14 13 12 12 12 13 13 14 14 13 12 12 12 12 12 11 11 11 10 9 6 4 4 4 4 5 6 7 8 8 8 10 12 12 13 14 15 16 17 18 18 18 19 21 22 24 27 29 30 32 33 34 36 35 34 37 37 36
23 23 24 24 25 26 26 26 26 25 24 24 24 24 24 24 23 22 21 20 19 18 17 16 16 16 15 14 13 12 12 13 13 13 13 13 13 12 12 13 13 12 11 10 10 9 7 5 4 4 4 5 6 7 7 8 8 9 11 14 15 16 17 18 19 20 22 22 22 23 24 24 25 29 31 33 36 38 38 39 38 38 39 39 37
24 24 24 25 26 25 25 25 25 25 25 25 25 25 25 25 24 23 22 20 19 18 17 16 15 16 16 15 13 12 13 13 12 12 12 12 12 12 11 12 12 12 11 10 9 7 5 4 4 4 5 5 6 7 8 10 10 11 14 16 18 19 20 20 22 23 25 26 26 27 27 26 27 30 32 34 37 39 41 42 42 41 42 43 40
24 25 25 26 26 25 24 24 24 24 25 25 26 26 26 25 24 23 22 21 19 18 16 16 16 16 16 15 14 13 14 13 12 12 12 11 11 11 10 11 11 11 10 9 8 7 5 4 4 4 5 6 7 9 10 12 14 15 17 19 21 22 23 23 24 26 28 28 28 29 30 30 31 31 33 36 39 41 43 44 45 45 46 46 44
23 24 25 26 25 24 24 23 23 23 23 24 25 26 25 24 23 22 21 20 19 17 16 16 16 16 15 15 15 15 15 14 12 12 12 11 10 10 10 10 10 9 8 8 8 7 5 4 4 4 6 8 9 11 13 15 18 19 21 23 24 26 26 26 28 29 31 31 31 30 31 34 35 34 36 40 43 45 46 47 48 49 49 50 49
20 21 22 22 22 22 22 22 22 22 22 23 24 23 22 22 22 22 20 19 18 17 17 16 17 17 17 17 16 15 15 14 13 13 12 11 10 9 9 9 8 8 7 7 7 5 4 3 4 6 9 11 13 15 17 19 21 22 24 25 27 29 29 29 30 32 33 34 34 33 33 36 39 38 40 45 46 47 49 50 51 52 52 53 52
20 18 17 17 18 18 19 19 20 20 21 21 21 20 20 21 21 20 20 19 18 18 18 18 18 19 18 18 17 16 15 15 15 14 13 12 11 10 9 9 8 8 7 6 6 4 4 5 6 9 12 14 16 18 20 22 23 24 25 27 28 30 30 30 32 34 35 36 37 37 36 39 42 42 44 47 49 49 50 52 52 52 53 54 54
20 18 16 15 15 15 15 16 16 17 17 17 17 17 18 19 20 20 20 20 19 19 20 19 19 19 19 19 19 17 17 17 17 16 15 14 12 11 10 10 9 8 8 7 6 5 6 8 10 12 15 17 20 22 23 25 26 26 27 27 29 29 29 30 33 35 36 38 39 40 40 41 44 45 46 49 52 52 54 56 54 53 55 57 56
21 19 17 15 15 15 14 14 14 14 14 14 14 15 16 18 19 20 20 21 21 21 22 22 21 21 22 21 20 20 19 19 19 18 17 16 14 13 13 12 11 10 9 9 7 7 9 11 14 15 17 20 22 25 27 28 28 28 29 29 29 29 29 32 35 36 37 39 40 41 42 43 46 49 50 53 56 56 59 61 59 58 61 62 61
22 20 18 17 17 17 16 16 15 14 13 13 14 15 16 18 19 20 20 21 22 23 24 24 24 23 23 22 21 22 21 21 20 19 18 18 17 16 15 13 12 11 11 10 10 10 12 15 17 19 20 22 25 27 29 30 30 29 31 31 31 30 32 36 39 39 39 40 40 42 45 47 49 52 53 55 56 56 60 63 62 62 65 67 68
24 22 21 20 19 19 19 18 17 16 15 14 15 15 17 18 20 20 21 22 23 25 26 26 25 25 24 23 23 23 22 21 20 19 19 19 18 17 16 15 13 13 12 12 13 14 16 19 21 22 24 25 28 29 30 31 31 31 33 35 34 34 36 40 43 44 43 42 42 44 47 47 49 51 51 51 52 54 58 61 62 64 66 68 71
28 27 25 23 22 22 22 21 20 20 18 17 17 17 17 18 20 21 21 22 24 26 27 26 26 26 26 25 25 24 22 21 21 21 21 21 19 18 16 14 14 14 14 15 16 17 19 22 23 25 27 28 30 31 31 33 33 33 35 37 38 37 39 42 45 48 49 47 45 47 48 47 47 48 48 49 50 51 54 57 60 62 64 66 68
32 31 29 27 26 25 24 23 23 23 22 21 20 19 19 19 19 20 22 23 25 26 27 27 27 27 27 27 26 25 24 23 23 23 22 21 20 18 16 14 14 15 15 16 18 20 22 24 26 28 29 30 31 32 33 34 36 37 38 40 41 42 43 44 46 51 54 52 49 48 48 47 48 49 50 50 50 50 52 54 56 59 62 64 66
35 33 31 30 28 27 27 26 25 25 25 24 22 21 20 20 20 21 22 24 25 26 27 28 28 28 28 28 27 26 26 25 24 24 23 21 20 18 16 14 15 16 17 18 21 23 25 27 29 30 31 32 33 33 35 36 38 40 41 42 44 45 46 47 48 52 56 57 54 52 51 51 53 54 55 55 54 55 55 56 57 59 60 62 63
36 34 33 31 29 28 28 28 27 27 26 25 24 23 22 21 21 21 22 23 25 27 27 28 29 29 29 29 28 27 26 25 25 24 23 21 19 18 16 16 18 19 20 22 24 26 28 29 31 31 32 33 34 35 37 38 40 42 43 44 46 46 47 49 50 53 57 59 59 57 55 55 57 57 57 57 57 57 58 59 59 60 60 60 60
37 36 34 32 30 30 29 29 29 28 28 27 26 25 24 23 22 21 21 22 23 26 28 28 29 30 30 29 28 27 27 27 26 24 23 21 20 19 19 20 22 23 25 26 28 29 30 31 32 33 33 34 35 37 38 40 41 43 44 45 46 47 48 50 52 54 57 60 61 60 60 59 59 58 57 57 57 57 57 57 57 58 59 59 60
39 37 36 34 32 32 31 30 30 30 30 30 29 28 27 25 23 22 21 20 20 22 26 29 30 30 30 29 29 29 29 28 27 25 24 23 22 23 23 24 26 27 28 29 30 30 31 32 33 34 35 36 37 38 40 41 42 43 44 45 46 48 50 52 53 55 58 60 61 62 62 61 59 58 57 56 55 55 56 55 55 56 57 59 60
40 39 38 36 35 35 34 32 31 32 33 33 33 32 30 28 25 23 21 20 19 19 23 27 30 31 31 30 29 30 30 29 28 27 26 25 25 26 26 27 28 29 30 30 31 32 33 34 35 36 37 38 39 40 41 42 43 44 45 46 48 51 53 55 56 57 59 60 61 63 62 60 57 57 56 54 53 53 53 53 52 53 55 58 58
42 41 40 40 39 38 37 36 35 35 35 35 35 34 33 31 28 25 23 22 20 19 21 26 29 30 31 30 30 30 30 30 29 28 28 28 28 28 29 30 31 31 31 31 33 34 35 36 37 37 38 39 40 41 42 43 43 45 46 48 51 54 56 57 59 60 60 61 63 64 63 59 56 56 55 52 51 52 53 54 53 53 54 56 57
45 44 44 44 44 43 41 40 39 37 37 37 37 36 36 34 32 29 26 25 23 22 21 24 27 30 31 31 30 30 30 31 30 30 30 30 31 31 32 32 33 33 33 34 35 36 37 38 38 39 39 41 42 43 43 44 45 47 48 50 53 56 58 60 61 61 62 63 65 65 63 58 56 55 54 52 51 52 54 54 54 53 54 55 59
44 44 45 45 45 45 44 44 43 41 40 39 39 39 38 38 36 35 32 29 28 26 24 24 26 29 31 31 30 30 30 31 32 32 33 33 33 34 34 34 34 35 36 37 38 38 39 39 40 41 41 43 43 44 44 46 47 49 51 53 56 58 60 62 62 62 63 65 66 66 63 58 55 55 53 51 51 52 54 54 53 53 54 57 62
40 40 41 42 42 43 42 42 42 41 40 40 41 41 41 41 40 39 38 35 33 30 28 26 26 28 30 31 31 32 32 33 34 34 34 35 35 35 36 36 37 38 39 39 40 40 41 41 42 43 43 44 45 45 46 48 49 51 53 55 58 60 62 63 63 63 65 66 67 66 62 57 55 54 52 51 50 50 53 54 54 55 55 57 61
35 35 36 37 37 38 38 38 38 38 38 38 39 40 41 42 42 42 42 40 38 35 33 31 30 30 30 31 32 33 34 35 35 36 36 36 37 37 37 38 39 39 40 41 42 42 43 44 44 45 45 46 47 47 48 50 51 53 55 58 60 62 62 63 64 64 65 67 67 64 59 56 55 53 52 52 50 50 52 54 54 55 55 56 60
32 32 32 32 33 33 33 33 33 34 35 35 36 37 38 40 42 43 43 43 42 40 38 35 34 33 32 33 34 35 36 37 37 37 38 38 38 39 39 39 40 41 42 43 44 45 45 46 46 47 47 48 48 49 50 52 53 55 58 60 61 62 63 64 66 66 66 67 65 61 57 56 55 53 52 52 51 51 52 53 53 54 54 55 58
31 30 30 30 31 31 31 31 31 32 32 33 34 34 36 37 39 40 41 43 44 43 41 39 37 37 36 35 36 36 37 39 40 39 39 40 41 42 42 42 43 44 44 45 46 47 48 48 48 49 49 49 50 51 52 54 55 57 60 61 62 63 64 66 68 68 68 67 63 58 56 55 54 53 53 53 52 52 52 52 52 52 52 52 55
31 31 31 31 32 32 32 32 32 32 32 33 34 34 34 35 36 38 39 41 42 43 43 41 40 40 39 38 38 38 40 41 42 41 41 42 44 44 44 44 45 46 47 48 48 49 49 50 50 50 50 50 51 52 54 56 57 59 61 62 63 65 66 68 69 69 68 66 60 55 54 55 54 53 53 52 52 52 52 52 52 52 51 50 52
32 32 32 33 33 33 33 33 33 32 32 33 34 35 35 35 35 36 37 39 40 42 43 43 43 43 42 42 41 41 42 43 44 44 44 45 46 46 46 46 47 48 48 49 50 51 51 52 51 51 51 52 53 54 56 58 59 60 61 62 63 66 68 69 70 70 68 64 58 54 53 54 53 53 52 52 52 51 51 51 50 51 50 49 49
34 33 34 34 34 34 34 33 33 33 32 32 33 35 36 36 35 36 37 38 40 41 42 44 45 45 45 45 45 44 44 45 46 46 47 47 47 47 48 49 49 50 51 52 53 53 53 53 53 52 53 53 54 56 58 59 60 60 61 62 64 66 68 70 70 69 66 63 58 54 53 53 53 53 52 52 52 51 50 49 47 47 47 47 47
36 36 36 36 36 36 35 34 34 34 33 33 33 35 35 36 37 37 38 38 39 41 42 44 45 46 47 48 48 48 48 47 47 48 48 49 49 50 50 50 51 52 53 55 55 55 54 54 53 53 54 55 56 58 59 59 60 60 62 64 66 67 69 70 70 68 65 62 58 54 53 54 54 54 53 53 52 51 50 48 47 45 44 44 44
38 38 38 38 37 37 36 36 35 35 34 34 34 35 36 37 38 37 38 39 40 42 42 42 43 45 47 48 49 50 50 49 49 50 50 50 51 51 51 52 53 55 56 57 57 55 54 54 54 55 56 57 58 59 59 59 60 61 63 65 67 68 70 70 69 67 64 62 59 55 54 55 55 54 54 55 55 54 52 51 49 47 45 44 42
40 40 39 39 38 38 38 37 37 36 36 36 36 36 37 38 39 38 38 40 41 41 41 41 41 41 44 48 50 52 52 51 52 53 53 52 52 53 53 55 56 57 58 58 57 55 54 55 56 57 58 59 59 59 59 59 60 62 64 66 67 68 69 70 68 65 63 61 58 55 55 55 55 54 55 56 57 57 56 54 52 50 48 47 45
41 41 40 40 39 39 39 38 38 38 38 38 37 38 39 40 41 41 41 42 41 40 41 41 40 39 42 46 50 53 54 54 54 54 54 54 54 55 56 57 58 58 57 56 55 55 56 57 58 58 59 59 59 58 59 60 61 63 65 66 67 68 68 68 66 63 61 60 57 56 55 55 55 55 55 56 57 57 56 55 53 51 50 49 48
41 42 42 41 41 41 40 39 39 39 39 39 39 39 40 41 42 43 43 42 42 41 42 42 42 42 43 45 48 50 52 53 54 54 54 55 55 56 56 57 56 56 56 55 56 56 57 58 58 59 59 58 58 58 59 61 62 64 65 66 67 67 67 66 64 62 61 60 58 56 56 56 56 55 55 56 57 58 56 54 52 50 48 47 47
42 42 42 42 42 42 42 41 40 41 41 40 40 40 41 42 43 43 44 43 43 44 44 44 45 45 45 46 47 48 50 51 51 52 53 54 54 55 55 55 55 55 56 56 57 58 58 59 59 59 59 58 58 59 61 62 64 65 66 66 67 67 66 64 63 62 62 60 58 56 56 56 55 55 55 56 57 58 57 55 53 49 46 44 43
42 42 42 42 43 43 43 43 43 43 43 43 42 42 42 42 43 44 44 45 45 46 46 47 47 48 48 48 49 49 49 50 51 52 52 53 54 54 55 55 56 56 56 57 58 58 59 59 59 59 59 59 60 61 63 64 65 65 66 67 67 67 65 64 63 63 62 61 58 56 55 56 55 55 56 56 56 56 56 55 53 50 46 43 42
44 43 43 43 43 44 44 45 45 46 46 45 44 44 44 44 44 45 46 47 48 48 49 49 50 50 50 50 50 50 50 51 52 53 54 54 55 56 56 56 57 57 58 58 59 59 59 60 60 60 60 61 62 63 64 65 66 66 67 68 68 67 66 64 63 63 63 62 59 56 55 55 55 55 56 56 56 55 54 53 51 50 47 44 41
43 43 43 43 43 44 44 45 46 46 47 47 47 46 46 47 47 48 49 50 51 52 52 52 52 52 52 51 51 51 52 53 54 55 55 56 57 57 58 58 59 59 59 59 60 60 60 61 61 61 61 62 63 64 65 66 67 68 68 69 69 68 66 64 64 65 65 63 60 57 56 55 55 55 55 55 55 54 53 52 51 49 48 46 43
41 43 43 44 44 44 45 45 46 47 47 48 49 49 50 50 51 52 53 53 54 54 54 54 54 54 54 54 54 54 55 56 56 57 57 58 59 59 60 60 60 60 60 60 60 61 61 62 62 62 62 63 64 66 66 67 69 70 70 70 69 68 66 65 66 66 67 64 61 57 56 56 55 54 54 53 53 52 51 50 49 48 47 46 44
43 44 45 46 47 47 47 47 48 48 49 50 50 50 51 52 52 53 54 55 56 56 56 56 56 56 56 57 57 57 58 58 59 59 60 60 60 61 61 61 61 61 61 61 62 62 62 63 63 63 64 65 66 67 68 69 71 71 71 70 69 67 66 66 67 67 66 64 61 57 55 55 55 54 53 52 52 51 50 48 47 46 45 44 44
48 48 48 49 50 51 51 51 52 52 53 53 54 54 55 56 57 57 57 58 58 59 59 59 59 59 59 60 60 60 61 61 61 61 61 61 62 62 62 62 62 62 62 62 62 63 63 63 63 64 65 66 67 69 70 71 71 71 70 68 67 67 67 67 68 67 65 63 59 56 54 54 54 53 51 51 50 50 49 47 46 44 43 43 42
51 51 51 52 53 54 54 55 56 56 56 57 58 59 60 61 62 62 62 62 62 62 62 62 62 62 62 62 62 62 62 62 62 62 62 63 64 64 64 64 64 64 63 63 63 62 62 63 64 65 67 68 69 70 71 71 70 69 68 67 67 67 68 69 69 67 65 61 58 55 54 54 53 52 50 49 48 47 47 46 44 43 43 42 42
53 54 54 54 55 56 57 58 58 59 60 60 61 62 63 64 65 65 66 65 65 65 64 64 64 64 64 64 64 64 64 64 64 64 64 65 65 65 65 64 64 63 63 62 62 63 63 64 66 67 69 70 70 71 71 70 68 67 67 67 68 69 69 68 67 66 63 60 58 56 55 54 53 52 50 49 47 46 45 44 43 43 42 42 42
55 56 56 56 56 57 59 60 61 62 63 64 65 66 66 67 68 68 68 68 67 66 66 66 66 66 66 66 66 66 66 65 65 65 64 64 64 64 64 64 63 63 63 63 64 64 65 67 68 69 70 70 71 71 70 69 68 68 69 70 69 68 67 66 64 62 61 59 57 56 56 55 54 52 51 49 47 45 44 43 42 42 41 41 40
Wind_Direction
202 204 203 203 202 199 197 196 196 195 191 186 185 187 186 184 183 181 178 177 180 184 192 201 212 224 236 246 257 267 276 284 288 290 291 293 296 299 301 305 312 320 331 342 351 355 351 340 341 347 345 345 350 358 8 14 18 21 23 26 26 25 23 21 19 14 9 5 1 357 356 355 354 353 350 348 344 342 340 338 337 336 335 334 333
203 206 205 203 202 200 200 200 199 197 191 187 187 188 188 188 185 182 182 187 192 198 206 215 222 231 240 249 257 265 272 279 284 286 287 289 291 293 295 298 303 310 319 330 339 347 350 341 332 336 342 344 348 354 1 6 11 12 12 13 17 19 16 11 7 3 -0 357 354 351 348 346 344 342 339 337 334 333 331 330 330 329 329 329 329
201 201 198 199 200 200 200 201 200 197 192 188 189 189 190 191 189 187 191 195 200 207 214 220 227 234 241 248 255 260 265 270 274 280 285 289 290 290 291 294 296 299 307 316 323 333 341 337 322 317 326 336 344 354 359 1 3 -0 356 357 359 2 3 359 355 352 349 347 346 343 340 337 335 333 332 330 329 327 326 325 325 325 325 326 327
200 196 193 194 197 199 199 200 199 196 192 190 190 191 192 192 192 196 200 203 207 213 219 224 230 235 240 244 249 253 259 264 268 274 281 286 288 290 289 289 290 290 294 302 307 316 327 328 314 303 306 317 333 347 352 354 355 350 348 348 348 349 348 343 341 340 339 339 338 336 334 332 330 329 328 328 326 326 324 322 323 324 324 324 325
196 193 192 193 193 196 197 198 198 195 192 191 192 192 194 194 197 202 206 208 213 219 224 229 232 233 236 239 242 247 254 262 268 271 275 280 282 283 282 281 283 283 285 289 292 301 312 314 308 296 289 297 317 338 346 347 346 342 339 340 342 342 339 333 332 332 333 333 330 330 329 327 326 325 322 323 323 322 320 318 319 324 324 324 326
192 191 191 190 189 191 193 195 197 196 195 194 193 194 195 197 201 206 210 214 218 223 227 229 230 230 232 235 239 245 251 256 262 267 272 275 273 272 271 271 273 276 278 281 283 289 297 301 301 292 278 280 296 323 340 339 338 333 328 329 332 335 333 329 328 329 330 327 324 323 321 321 323 320 315 316 319 318 314 312 316 322 322 322 324
189 189 189 188 187 188 189 192 195 197 197 197 197 197 198 200 205 209 214 218 222 224 226 226 227 229 231 233 237 243 248 252 255 260 264 266 264 262 262 261 263 266 270 274 278 283 289 293 291 277 268 270 284 308 326 327 328 326 320 319 323 328 328 324 324 327 327 324 322 318 316 318 320 317 312 313 315 313 309 309 314 318 316 317 321
190 189 188 187 186 186 189 193 196 199 200 200 201 201 202 205 209 214 217 220 222 223 225 227 229 232 233 234 236 240 245 249 252 256 258 259 257 255 251 252 256 258 260 264 270 277 284 288 279 262 260 266 280 298 309 312 317 317 313 314 319 323 323 321 323 325 325 324 323 318 317 320 320 315 313 313 313 310 305 307 312 312 310 313 317
192 190 188 186 186 188 191 195 198 201 202 203 205 206 208 210 214 218 219 219 220 223 226 229 231 234 236 236 238 240 243 247 250 254 256 256 255 250 244 243 246 248 251 255 260 268 273 275 274 273 274 280 287 292 299 306 314 314 310 313 319 321 322 323 325 324 323 324 322 317 318 322 319 314 313 313 312 309 307 307 309 308 307 309 312
194 193 190 189 190 192 194 196 199 200 202 204 206 208 210 213 216 218 217 217 219 222 225 228 230 233 236 238 240 243 246 251 253 253 254 254 252 247 239 235 237 241 244 247 251 253 254 259 272 286 296 300 299 300 305 311 316 315 312 314 317 319 322 323 323 321 320 320 318 315 317 318 314 310 310 310 309 308 307 307 307 307 306 306 308
195 195 195 196 196 196 196 198 199 200 201 204 207 209 211 213 215 215 215 216 218 220 224 227 229 232 235 236 239 243 249 254 256 255 253 250 246 241 234 230 230 231 233 236 240 242 245 256 272 286 296 298 299 305 309 309 310 310 309 311 313 315 317 318 317 315 314 314 313 312 312 312 308 306 307 306 304 303 303 305 306 306 304 304 305
196 197 198 200 200 199 199 199 200 201 203 205 207 209 210 212 213 214 215 217 218 220 223 227 230 232 233 235 237 242 249 252 253 252 250 246 240 233 227 226 225 222 221 222 227 233 237 248 264 279 287 293 300 305 305 304 304 305 306 307 308 309 311 312 311 310 307 307 308 308 308 307 304 304 304 301 299 300 302 303 304 303 302 302 303
193 196 200 201 201 201 200 200 201 202 204 206 208 210 211 212 213 215 216 218 219 221 225 229 233 235 235 235 235 240 247 249 247 246 244 240 234 225 220 222 221 217 213 212 216 218 220 234 262 279 285 293 298 298 299 300 301 303 305 306 306 306 306 309 309 306 303 303 304 306 306 303 302 303 301 298 299 301 302 302 302 301 300 300 301
184 192 198 200 201 202 201 201 202 203 204 207 208 210 211 213 216 219 221 223 224 225 226 229 232 234 235 235 236 239 243 243 240 238 236 232 227 221 219 219 215 211 208 209 210 209 218 248 273 281 284 290 293 294 298 299 299 302 304 304 305 304 305 307 306 301 301 302 302 303 303 301 302 303 300 298 300 301 301 300 299 298 298 299 299
178 183 189 191 194 198 200 201 204 206 208 210 211 212 215 218 222 225 226 228 228 228 229 230 232 234 235 236 238 240 239 237 234 230 228 227 224 221 218 215 211 208 208 213 217 223 248 269 275 279 284 289 292 293 294 294 295 298 299 300 301 301 304 306 302 299 300 301 300 302 303 302 304 304 301 299 299 299 299 299 297 298 298 296 295
176 180 182 185 187 190 193 198 204 207 210 212 213 216 220 224 228 230 231 232 232 232 233 233 233 232 232 234 237 238 235 233 231 227 224 223 222 220 218 217 217 215 217 224 231 244 261 271 275 280 285 289 291 291 291 291 293 294 294 295 295 296 298 298 295 295 296 296 298 302 304 304 305 305 304 303 302 301 300 300 301 302 299 295 293
177 181 185 191 195 197 197 200 204 208 208 208 211 217 222 226 230 232 233 234 234 234 235 233 231 230 229 230 233 234 233 231 231 228 224 221 220 218 219 221 222 223 228 234 244 257 267 273 276 280 285 287 287 288 289 290 291 292 291 291 291 293 296 293 290 291 292 294 298 302 304 306 307 305 304 306 307 305 301 302 306 304 300 297 296
182 185 190 197 203 206 207 207 208 211 212 211 213 219 224 228 230 231 232 233 233 233 233 232 230 228 229 230 231 232 232 231 231 229 224 221 220 219 220 222 222 226 233 242 252 261 267 272 275 278 280 281 281 282 285 287 288 290 292 293 295 299 299 294 293 294 295 298 302 304 305 306 305 303 303 304 305 303 300 300 302 301 299 299 298
189 192 197 204 209 212 213 214 214 215 217 218 220 225 229 230 231 231 232 233 233 232 232 231 229 227 228 229 231 232 232 231 231 229 225 221 220 221 221 221 223 229 236 244 253 260 265 269 272 274 276 278 280 283 285 287 290 293 295 297 299 301 299 296 296 296 296 297 301 303 303 302 301 300 300 299 299 297 295 295 296 295 294 295 294
196 197 201 207 213 216 217 218 220 220 221 223 226 230 234 235 235 234 233 234 234 233 232 231 228 226 226 228 231 232 231 230 230 229 227 223 222 224 224 222 225 233 240 248 256 263 267 269 272 274 277 280 283 287 288 290 293 296 297 298 299 299 298 297 298 297 296 298 301 303 304 304 302 301 300 298 296 295 293 293 293 293 294 294 294
201 202 203 207 212 216 218 220 222 223 225 226 228 232 236 238 240 239 236 234 234 234 233 231 228 225 224 226 230 232 232 231 230 230 229 227 226 228 228 228 234 241 249 258 264 267 270 272 274 277 280 283 285 287 288 290 292 293 294 295 297 298 299 300 301 302 302 305 309 309 309 308 307 306 305 303 300 297 294 294 294 294 295 295 296
204 205 206 207 210 214 217 221 224 226 227 229 231 233 236 239 242 243 241 238 234 233 232 231 229 226 225 226 229 232 234 234 233 233 232 233 235 237 240 244 252 257 261 266 268 269 271 273 275 277 279 280 282 283 284 286 287 289 292 293 295 297 300 302 305 307 308 311 314 314 313 312 311 310 309 307 305 302 300 299 298 298 297 296 296
205 207 207 208 210 213 216 221 226 228 228 230 233 236 237 238 241 245 247 244 237 232 230 231 229 228 227 228 230 232 235 235 234 234 236 239 244 249 253 258 261 264 265 265 266 266 268 270 272 274 275 277 278 279 281 284 287 290 293 294 296 298 302 306 309 310 311 313 314 315 315 314 313 311 309 308 306 304 302 301 301 300 299 299 299
207 208 208 209 211 213 215 221 227 230 230 230 234 237 239 240 241 243 247 248 242 233 228 228 229 228 229 231 232 233 233 233 234 236 238 243 248 251 255 257 258 260 262 262 263 264 267 269 270 273 275 277 279 281 283 287 289 291 293 295 297 301 305 309 311 311 312 313 314 316 317 316 314 311 309 308 306 305 304 303 302 302 302 303 304
209 209 209 209 211 212 213 218 226 230 232 232 234 236 238 239 241 242 245 249 248 238 229 226 227 228 230 232 234 233 232 232 234 237 240 244 248 250 252 254 256 258 259 261 264 265 267 269 271 274 277 280 282 285 287 289 290 292 295 298 301 304 307 309 311 312 313 314 315 316 318 317 314 311 310 309 308 307 307 305 305 305 305 305 305
209 209 209 209 211 211 211 215 221 227 232 235 237 239 239 239 239 241 244 249 252 244 232 227 227 228 230 232 233 233 233 234 236 239 242 245 248 250 252 253 255 258 260 262 265 266 268 271 275 278 281 284 286 288 289 291 293 296 299 302 304 306 308 309 312 313 314 315 316 317 317 316 313 311 310 309 309 309 307 307 307 308 307 306 306
209 209 210 210 211 211 211 213 217 223 228 233 237 241 243 243 242 242 244 248 252 247 236 230 230 231 231 232 233 234 235 237 239 242 245 248 250 252 253 255 257 259 261 263 266 268 272 276 279 281 284 286 287 289 291 294 297 300 302 304 306 307 309 311 313 315 315 316 317 318 318 316 313 310 310 310 310 310 309 310 310 310 310 308 308
211 211 212 212 212 213 212 213 216 220 224 228 234 239 243 247 248 247 246 246 248 248 241 234 233 234 235 235 236 237 238 239 241 244 246 248 251 252 255 257 259 261 263 265 268 272 276 278 280 283 285 287 288 291 294 297 300 302 304 306 307 309 311 313 314 315 316 316 318 318 317 315 312 310 309 311 311 311 311 311 311 311 312 313 315
218 218 218 218 218 218 218 218 218 220 221 224 228 233 238 243 247 250 249 247 245 245 244 240 236 237 238 238 240 242 243 243 244 245 247 250 252 256 258 260 262 263 265 268 272 275 278 281 282 284 286 288 290 292 295 299 302 304 306 307 309 310 312 313 314 315 315 316 318 317 316 313 311 310 310 310 311 311 311 311 312 316 318 319 320
222 223 224 225 226 227 227 227 226 226 226 227 228 230 233 237 242 246 249 250 247 245 244 243 241 240 239 240 241 244 245 246 246 248 251 254 258 261 263 264 264 266 269 273 276 279 281 282 284 286 288 290 291 294 297 300 303 305 307 308 310 311 312 312 313 314 315 317 318 317 315 313 311 310 309 309 310 310 312 315 318 321 322 322 322
222 224 226 227 229 231 232 233 233 233 234 234 234 233 233 235 238 241 245 248 250 249 246 244 243 242 241 240 242 243 245 246 248 251 253 257 261 264 265 266 267 269 272 276 278 280 282 284 286 288 289 291 292 295 298 301 303 305 307 308 309 310 310 311 312 314 316 317 317 317 315 313 312 310 309 310 311 312 315 318 319 321 323 324 325
226 227 228 229 231 233 234 235 236 237 238 239 239 239 237 237 238 239 241 244 248 249 249 247 246 245 244 243 242 243 245 247 249 252 255 258 261 263 265 267 268 270 273 277 279 281 284 285 287 288 289 291 293 295 299 301 304 306 307 308 308 309 310 311 312 314 317 318 317 316 315 314 313 311 310 311 313 314 317 317 318 321 324 326 327
227 229 231 233 235 236 237 238 239 239 240 241 242 242 241 241 241 241 241 242 245 248 249 249 248 247 247 246 246 246 247 250 252 253 256 259 262 263 265 267 269 271 274 277 279 282 284 285 287 288 289 291 293 296 299 302 304 305 306 306 307 308 310 311 312 315 318 318 317 316 316 315 314 312 311 312 314 314 316 317 318 322 325 327 329
229 231 233 235 237 239 240 241 241 241 242 243 244 245 245 245 244 244 244 244 244 246 248 249 249 249 249 249 249 249 251 253 255 257 258 260 262 264 265 268 270 272 274 277 280 282 284 285 287 288 289 291 294 297 300 302 303 305 305 306 307 308 309 311 312 315 318 318 317 316 315 315 315 313 312 313 314 315 316 318 319 323 326 328 332
232 234 236 237 239 240 241 242 243 243 243 244 246 247 248 248 249 249 248 248 247 246 247 248 249 250 250 250 251 251 252 255 257 259 260 260 262 264 266 269 271 273 276 278 281 282 284 284 286 287 289 291 295 297 300 301 302 303 304 305 306 308 309 310 312 315 316 317 315 315 314 314 314 314 314 314 315 316 317 318 319 323 326 329 332
234 236 238 240 241 241 242 243 244 245 246 246 247 249 250 252 252 252 252 252 252 251 249 248 248 249 250 252 253 253 254 256 258 260 261 262 264 266 267 269 272 274 277 279 280 282 283 284 285 287 290 292 295 297 299 300 301 302 304 304 306 307 308 310 312 314 315 315 314 314 313 313 313 314 315 316 316 316 316 317 319 322 326 328 331
236 237 238 240 242 242 243 244 245 246 247 248 249 251 253 254 255 255 256 256 256 255 253 251 250 250 250 251 253 254 255 256 258 260 262 263 264 267 269 271 273 275 276 278 280 281 282 283 285 288 291 293 295 296 297 299 300 302 303 304 305 307 308 310 312 313 314 313 313 314 313 313 313 313 314 315 315 315 315 316 318 320 324 327 330
240 240 240 240 241 242 243 245 246 248 249 251 252 253 255 256 257 258 260 259 258 257 256 256 255 255 253 253 254 255 255 257 258 261 263 264 266 267 269 271 273 274 275 277 279 280 282 284 286 289 291 292 294 295 296 298 300 301 302 304 305 307 308 310 311 312 312 313 313 313 313 313 313 313 313 313 314 315 316 316 317 318 320 324 327
242 242 242 242 242 243 244 245 247 249 250 252 253 254 256 258 259 260 260 258 257 257 258 260 261 260 257 256 257 258 257 257 258 259 262 264 265 267 268 270 271 273 275 277 278 280 282 285 287 288 290 291 292 294 296 298 299 301 302 304 306 307 308 308 309 310 311 312 312 312 312 312 312 313 313 313 313 315 317 317 318 319 320 322 326
243 243 243 243 244 245 246 247 249 250 251 252 254 255 256 258 259 260 260 260 259 259 259 261 261 258 254 252 254 256 257 257 258 259 261 263 264 266 267 269 271 273 275 277 279 281 283 284 286 287 288 290 292 294 296 297 299 300 302 304 305 306 306 307 307 308 310 311 311 310 310 311 312 312 313 313 313 314 315 317 318 320 321 323 325
242 243 244 245 246 248 249 250 251 252 252 253 254 255 256 257 259 260 260 261 261 260 259 259 258 255 252 250 250 253 255 257 258 260 261 263 264 266 267 269 271 273 275 277 279 281 282 283 285 286 288 290 292 294 295 296 298 300 302 303 304 304 305 304 305 306 308 309 309 309 309 310 311 312 312 312 312 312 314 315 317 319 321 323 324
240 242 244 246 248 249 250 251 251 252 253 254 253 254 255 256 257 259 259 259 259 258 258 257 257 256 255 254 253 254 255 257 259 260 262 264 265 267 269 270 272 274 276 277 278 280 281 283 285 287 288 290 292 293 295 296 298 300 301 302 303 303 303 303 304 306 308 308 307 307 307 308 309 309 309 310 310 311 313 314 315 316 319 320 321
239 240 242 244 247 249 251 252 252 252 253 253 253 253 254 254 255 256 257 258 258 258 258 258 258 258 258 258 258 258 259 260 261 263 264 265 267 268 270 271 273 274 275 277 278 280 282 284 285 287 289 290 292 293 295 297 299 300 301 301 301 301 301 301 303 305 307 307 306 305 305 306 306 307 307 308 309 310 311 312 313 314 316 317 318
241 241 241 242 244 246 249 251 252 253 253 253 252 252 253 253 254 254 255 256 257 258 258 258 259 259 260 261 261 262 262 263 264 264 265 266 268 269 270 272 273 275 276 278 279 281 282 284 285 287 289 290 292 293 295 297 298 299 300 300 300 299 299 299 301 304 306 306 304 303 303 304 305 305 306 306 307 308 309 309 310 311 313 314 315
246 246 245 244 244 245 246 248 250 251 253 254 254 253 253 253 253 254 254 255 256 257 258 258 259 260 261 262 262 262 263 263 264 265 266 267 269 270 271 273 274 276 277 279 280 281 283 284 286 287 289 291 292 294 295 297 298 298 299 298 298 298 297 297 299 302 304 304 303 301 301 302 303 304 304 305 306 307 307 307 307 308 309 310 311
250 251 251 250 249 248 248 248 249 250 252 253 253 253 253 253 254 254 254 254 255 256 257 259 260 261 261 262 262 263 263 264 265 266 267 269 270 271 272 274 275 277 278 279 281 282 283 285 286 288 289 291 292 294 295 296 297 298 298 297 297 296 296 296 297 300 302 302 301 299 299 300 301 302 303 303 304 304 305 305 305 305 306 308 309
251 253 255 255 255 254 253 252 252 251 252 253 253 253 253 253 253 254 254 255 256 257 258 259 260 261 262 262 263 263 264 265 266 267 268 270 271 272 273 275 276 277 279 280 281 282 284 285 287 288 289 290 292 294 295 296 296 297 297 296 296 295 295 295 297 298 300 300 298 297 297 297 298 299 300 301 302 302 302 302 303 303 303 304 306
254 254 254 255 256 256 256 256 255 254 254 254 254 254 254 254 254 254 255 256 257 257 258 259 260 261 261 262 263 264 265 266 268 269 270 271 272 273 274 276 277 278 279 280 282 283 285 286 287 288 289 291 292 293 294 295 296 296 296 295 295 294 294 295 296 297 298 298 296 293 293 294 295 296 297 298 298 299 299 299 300 301 301 301 302
257 256 254 254 254 254 254 255 255 255 255 255 255 256 256 256 257 256 257 257 257 257 258 258 259 260 261 262 264 265 266 267 268 269 271 272 273 274 275 276 277 278 280 282 283 284 285 287 287 288 290 291 292 293 293 294 295 295 295 294 294 294 294 294 295 296 296 295 293 290 289 290 291 293 294 294 294 295 296 297 298 298 299 300 300
260 258 256 255 254 253 253 253 253 254 254 255 255 256 256 257 257 257 258 258 258 258 258 259 260 260 261 262 263 265 266 267 268 269 271 272 273 275 276 277 278 279 281 282 283 284 285 286 287 288 289 290 291 292 292 293 293 293 293 293 293 293 293 293 294 294 294 293 291 288 287 287 289 290 290 291 291 292 294 295 296 297 297 298 299
259 259 258 257 256 255 255 254 253 253 252 253 253 254 254 255 256 257 257 258 258 259 259 260 260 261 262 262 263 264 265 267 268 269 271 272 273 274 275 277 278 279 280 281 282 283 284 285 286 287 288 289 290 290 290 290 290 290 291 292 292 292 292 293 293 293 293 290 288 286 285 285 286 287 287 288 289 290 291 291 292 294 295 296 297
Height
5905 5907 5909 5912 5914 5916 5918 5919 5920 5922 5923 5925 5927 5929 5931 5932 5933 5934 5935 5937 5938 5939 5939 5940 5941 5941 5942 5943 5944 5944 5944 5945 5945 5946 5946 5947 5947 5947 5947 5947 5947 5947 5948 5948 5948 5948 5947 5947 5947 5947 5948 5948 5948 5948 5948 5948 5948 5947 5946 5946 5945 5945 5944 5944 5944 5944 5943 5943 5943 5942 5942 5941 5941 5940 5939 5939 5938 5937 5936 5935 5934 5933 5932 5931 5930
5904 5906 5908 5911 5913 5915 5917 5918 5919 5921 5923 5924 5926 5928 5930 5931 5933 5934 5935 5936 5937 5938 5939 5939 5940 5940 5941 5942 5942 5943 5943 5944 5944 5944 5945 5946 5946 5946 5946 5946 5946 5947 5947 5947 5947 5947 5947 5946 5946 5946 5947 5947 5947 5947 5947 5947 5947 5946 5946 5946 5945 5945 5945 5944 5944 5943 5943 5943 5942 5942 5942 5941 5940 5940 5939 5938 5937 5936 5935 5934 5933 5932 5931 5930 5929
5901 5904 5906 5909 5911 5913 5915 5917 5918 5920 5922 5924 5925 5927 5929 5930 5932 5933 5935 5935 5936 5937 5938 5938 5939 5939 5940 5941 5941 5942 5942 5943 5943 5943 5943 5944 5945 5945 5945 5945 5946 5946 5946 5946 5946 5946 5946 5946 5946 5946 5946 5946 5946 5946 5946 5946 5946 5945 5945 5945 5945 5945 5945 5944 5944 5943 5943 5942 5942 5941 5941 5940 5939 5939 5938 5937 5936 5935 5934 5933 5932 5931 5929 5928 5927
5899 5902 5904 5906 5909 5911 5913 5915 5918 5919 5921 5923 5924 5926 5928 5929 5931 5933 5934 5935 5936 5936 5937 5938 5938 5939 5939 5939 5940 5940 5941 5941 5942 5942 5942 5943 5943 5944 5944 5944 5945 5945 5945 5945 5945 5945 5945 5945 5945 5945 5945 5945 5945 5945 5945 5945 5945 5944 5944 5944 5944 5944 5944 5943 5943 5943 5943 5942 5942 5941 5940 5939 5938 5937 5936 5935 5934 5933 5932 5930 5929 5928 5927 5926 5924
5897 5900 5902 5904 5907 5910 5912 5914 5916 5919 5920 5922 5923 5925 5927 5929 5930 5932 5933 5934 5935 5935 5936 5937 5937 5938 5938 5938 5938 5939 5939 5940 5940 5940 5941 5941 5942 5942 5942 5943 5943 5944 5944 5944 5945 5944 5944 5943 5943 5944 5944 5944 5944 5944 5944 5944 5943 5943 5943 5943 5943 5943 5942 5942 5942 5941 5941 5941 5940 5940 5939 5938 5937 5936 5934 5934 5933 5931 5930 5928 5926 5925 5924 5923 5922
5895 5898 5900 5903 5906 5908 5911 5913 5915 5917 5919 5920 5922 5924 5926 5928 5929 5930 5931 5932 5933 5934 5935 5936 5936 5936 5937 5937 5937 5937 5938 5938 5939 5939 5939 5940 5940 5940 5941 5941 5941 5942 5942 5943 5943 5943 5943 5943 5942 5942 5942 5943 5943 5943 5943 5943 5942 5942 5941 5941 5941 5941 5941 5940 5940 5940 5940 5940 5939 5938 5937 5936 5936 5934 5932 5931 5930 5929 5927 5925 5924 5922 5921 5920 5919
5894 5896 5899 5901 5904 5906 5909 5911 5913 5915 5917 5919 5921 5923 5925 5926 5928 5929 5930 5931 5932 5933 5933 5934 5935 5935 5935 5935 5936 5936 5937 5937 5937 5938 5938 5938 5939 5939 5939 5939 5940 5940 5941 5941 5941 5941 5941 5941 5941 5941 5941 5941 5941 5942 5941 5941 5941 5941 5940 5940 5939 5939 5939 5939 5939 5939 5939 5938 5938 5937 5936 5934 5933 5932 5931 5929 5928 5927 5924 5922 5922 5920 5918 5917 5916
5893 5895 5897 5900 5902 5905 5907 5909 5911 5913 5915 5918 5920 5922 5924 5925 5926 5927 5928 5929 5930 5931 5932 5932 5933 5933 5934 5934 5934 5935 5935 5936 5936 5936 5936 5936 5937 5937 5938 5938 5938 5939 5939 5939 5939 5939 5940 5940 5939 5939 5939 5940 5940 5940 5940 5940 5939 5939 5939 5938 5938 5938 5938 5938 5937 5937 5937 5937 5936 5935 5934 5933 5931 5930 5928 5927 5926 5925 5922 5920 5920 5919 5916 5914 5914
5892 5894 5897 5899 5901 5903 5905 5907 5909 5912 5914 5916 5919 5920 5922 5923 5925 5926 5927 5928 5929 5930 5930 5931 5931 5932 5932 5932 5933 5933 5934 5934 5934 5934 5934 5934 5935 5936 5936 5936 5936 5937 5937 5937 5938 5938 5938 5938 5938 5938 5938 5938 5939 5938 5938 5938 5938 5938 5937 5937 5937 5937 5937 5936 5936 5935 5935 5934 5934 5933 5932 5931 5930 5927 5925 5924 5922 5921 5919 5917 5917 5916 5913 5911 5911
5891 5894 5896 5898 5899 5901 5903 5905 5907 5910 5912 5914 5916 5918 5920 5921 5923 5924 5925 5926 5927 5928 5929 5930 5930 5930 5930 5930 5931 5931 5931 5931 5932 5932 5932 5933 5933 5934 5934 5934 5935 5935 5935 5936 5936 5936 5936 5936 5936 5936 5937 5937 5937 5937 5937 5936 5936 5936 5936 5935 5935 5935 5935 5935 5934 5933 5933 5932 5931 5931 5930 5929 5928 5925 5923 5921 5918 5916 5914 5912 5912 5911 5909 5907 5908
5890 5892 5894 5896 5897 5899 5902 5904 5906 5908 5910 5912 5914 5916 5917 5919 5920 5921 5923 5924 5925 5926 5927 5928 5928 5928 5928 5929 5929 5929 5929 5929 5929 5930 5930 5931 5931 5931 5932 5932 5933 5933 5934 5934 5934 5935 5935 5935 5935 5935 5936 5936 5935 5935 5935 5935 5935 5935 5934 5934 5933 5933 5933 5933 5932 5931 5930 5929 5929 5928 5927 5926 5925 5923 5921 5918 5915 5912 5911 5909 5907 5906 5903 5901 5902
5888 5890 5892 5894 5896 5898 5900 5902 5904 5906 5907 5909 5911 5913 5915 5917 5918 5919 5921 5922 5923 5924 5925 5926 5926 5926 5927 5927 5927 5927 5927 5927 5927 5927 5928 5928 5929 5930 5930 5930 5931 5932 5932 5933 5933 5934 5934 5934 5934 5935 5935 5934 5934 5934 5934 5933 5933 5933 5933 5932 5931 5931 5931 5931 5930 5929 5928 5927 5926 5925 5924 5923 5922 5921 5918 5915 5912 5910 5908 5906 5903 5901 5899 5896 5896
5887 5888 5890 5893 5895 5897 5899 5900 5902 5904 5905 5907 5908 5910 5913 5915 5916 5917 5918 5920 5921 5922 5923 5924 5924 5925 5925 5925 5925 5925 5925 5925 5925 5925 5926 5927 5927 5928 5928 5929 5929 5930 5931 5932 5932 5933 5933 5934 5934 5934 5933 5933 5933 5933 5932 5932 5931 5931 5931 5930 5929 5929 5928 5928 5928 5925 5924 5923 5923 5923 5922 5919 5918 5918 5915 5911 5909 5907 5904 5902 5899 5896 5894 5891 5891
5885 5887 5889 5891 5894 5895 5897 5899 5900 5902 5903 5905 5906 5909 5911 5913 5914 5915 5916 5918 5919 5920 5921 5922 5922 5922 5923 5923 5923 5923 5923 5923 5923 5923 5924 5925 5925 5926 5927 5927 5928 5929 5930 5931 5931 5932 5932 5933 5933 5933 5932 5932 5932 5931 5931 5930 5930 5930 5929 5928 5928 5926 5926 5926 5924 5921 5920 5920 5919 5920 5919 5916 5914 5915 5912 5907 5905 5903 5900 5897 5894 5891 5888 5886 5885
5884 5886 5888 5891 5893 5894 5896 5898 5899 5900 5902 5903 5905 5907 5909 5910 5912 5913 5914 5916 5917 5918 5919 5920 5920 5920 5921 5921 5921 5921 5921 5921 5921 5922 5923 5923 5924 5925 5925 5926 5927 5928 5929 5930 5930 5931 5931 5932 5932 5931 5931 5931 5930 5930 5929 5929 5928 5928 5927 5927 5926 5924 5924 5923 5920 5917 5917 5916 5915 5915 5916 5913 5910 5910 5908 5904 5900 5898 5895 5891 5888 5885 5882 5878 5878
5884 5886 5888 5890 5892 5893 5895 5897 5898 5899 5900 5902 5904 5905 5907 5908 5909 5910 5912 5913 5914 5916 5917 5918 5918 5918 5918 5918 5919 5919 5919 5919 5919 5920 5921 5922 5922 5923 5924 5925 5926 5927 5928 5928 5929 5929 5930 5930 5930 5930 5929 5929 5928 5927 5927 5926 5926 5926 5925 5925 5924 5923 5923 5921 5918 5916 5915 5913 5912 5912 5911 5910 5906 5904 5903 5899 5894 5891 5887 5883 5883 5881 5874 5869 5870
5883 5885 5887 5889 5891 5892 5894 5895 5897 5898 5899 5901 5902 5903 5904 5905 5906 5908 5909 5911 5912 5913 5914 5915 5915 5916 5916 5916 5916 5916 5917 5917 5918 5919 5920 5921 5921 5922 5923 5924 5924 5925 5926 5926 5927 5928 5928 5928 5928 5928 5927 5927 5926 5925 5924 5923 5923 5923 5922 5922 5921 5921 5921 5918 5915 5914 5913 5911 5911 5909 5908 5907 5903 5899 5897 5894 5889 5885 5879 5875 5877 5875 5866 5860 5861
5882 5884 5886 5888 5889 5891 5893 5894 5895 5897 5898 5899 5900 5901 5902 5903 5904 5905 5907 5908 5909 5910 5911 5912 5913 5913 5913 5914 5914 5914 5914 5915 5916 5917 5918 5919 5920 5921 5922 5922 5923 5924 5924 5925 5925 5926 5926 5926 5926 5926 5926 5925 5923 5922 5921 5920 5920 5920 5918 5917 5918 5918 5917 5913 5910 5910 5910 5909 5909 5907 5905 5904 5900 5896 5894 5890 5886 5882 5874 5870 5871 5867 5860 5854 5852
5880 5883 5884 5886 5887 5889 5890 5892 5894 5895 5896 5897 5898 5899 5899 5900 5901 5903 5904 5905 5906 5907 5908 5909 5910 5911 5911 5911 5911 5911 5912 5914 5915 5916 5917 5918 5919 5919 5920 5921 5922 5922 5922 5923 5923 5924 5924 5924 5923 5923 5923 5922 5921 5920 5918 5917 5916 5916 5914 5913 5913 5914 5913 5908 5904 5904 5904 5905 5905 5903 5902 5900 5897 5893 5891 5887 5884 5879 5872 5867 5865 5861 5856 5851 5846
5878 5879 5881 5883 5885 5886 5888 5890 5891 5893 5894 5895 5896 5897 5897 5898 5899 5900 5902 5902 5903 5904 5905 5907 5908 5908 5908 5908 5908 5909 5910 5912 5913 5914 5915 5916 5917 5918 5918 5919 5920 5920 5920 5921 5921 5921 5921 5921 5920 5920 5919 5918 5917 5916 5915 5913 5912 5912 5911 5909 5909 5909 5908 5904 5900 5896 5894 5898 5901 5899 5896 5894 5891 5887 5885 5881 5878 5875 5869 5864 5860 5855 5850 5846 5841
5873 5875 5878 5880 5882 5883 5885 5887 5889 5890 5891 5893 5894 5895 5895 5896 5897 5898 5899 5899 5900 5901 5903 5904 5905 5905 5906 5906 5906 5907 5908 5909 5910 5911 5912 5914 5915 5915 5916 5917 5917 5917 5918 5918 5918 5918 5918 5917 5917 5916 5916 5915 5914 5913 5912 5910 5909 5909 5908 5906 5904 5904 5901 5900 5897 5890 5885 5889 5893 5891 5887 5885 5882 5879 5876 5872 5870 5867 5862 5858 5855 5850 5845 5840 5835
5869 5872 5874 5877 5879 5881 5883 5884 5886 5887 5888 5890 5891 5892 5893 5894 5894 5895 5896 5896 5897 5898 5900 5901 5902 5902 5903 5904 5904 5905 5906 5907 5908 5909 5910 5911 5912 5912 5913 5913 5913 5914 5914 5915 5915 5915 5914 5914 5913 5913 5912 5912 5911 5910 5909 5908 5906 5905 5904 5902 5900 5898 5896 5894 5892 5886 5880 5880 5883 5882 5879 5877 5873 5870 5866 5863 5860 5856 5853 5849 5847 5843 5839 5834 5830
5867 5869 5872 5874 5877 5879 5880 5881 5882 5884 5885 5887 5888 5890 5890 5891 5892 5892 5893 5893 5894 5895 5897 5898 5899 5899 5900 5901 5902 5903 5904 5905 5906 5907 5908 5908 5909 5909 5909 5910 5910 5911 5911 5912 5912 5911 5911 5911 5910 5910 5909 5909 5908 5907 5906 5904 5903 5901 5899 5897 5895 5894 5891 5888 5886 5882 5876 5873 5872 5872 5871 5869 5865 5861 5858 5855 5852 5848 5844 5841 5837 5834 5830 5827 5824
5864 5867 5869 5872 5874 5875 5877 5878 5879 5881 5882 5884 5885 5887 5888 5888 5889 5890 5890 5891 5891 5892 5893 5895 5896 5897 5898 5899 5900 5901 5902 5902 5904 5905 5905 5905 5906 5906 5907 5907 5908 5908 5908 5908 5908 5908 5908 5907 5907 5906 5906 5905 5904 5903 5902 5900 5899 5897 5895 5893 5891 5888 5886 5883 5880 5877 5873 5868 5865 5862 5861 5859 5855 5852 5849 5846 5843 5840 5836 5833 5830 5826 5822 5819 5816
5861 5863 5866 5868 5870 5872 5873 5875 5876 5877 5878 5880 5882 5883 5884 5885 5886 5887 5888 5888 5889 5889 5890 5892 5893 5894 5895 5896 5897 5898 5899 5900 5901 5902 5902 5903 5903 5904 5904 5905 5905 5905 5905 5904 5904 5904 5904 5903 5903 5902 5902 5901 5900 5899 5897 5895 5894 5892 5890 5888 5886 5883 5880 5878 5875 5872 5868 5864 5860 5856 5853 5850 5846 5842 5840 5837 5834 5831 5828 5825 5822 5819 5815 5811 5809
5857 5859 5861 5863 5865 5867 5869 5871 5873 5874 5875 5876 5878 5879 5880 5882 5883 5884 5885 5886 5886 5887 5887 5888 5890 5891 5892 5893 5894 5895 5897 5898 5899 5899 5900 5900 5900 5901 5901 5901 5901 5901 5901 5901 5901 5900 5900 5899 5899 5898 5897 5896 5895 5893 5892 5890 5889 5887 5885 5883 5880 5878 5875 5872 5870 5866 5862 5858 5855 5851 5847 5843 5838 5835 5832 5829 5826 5824 5820 5817 5815 5813 5809 5804 5801
5853 5855 5857 5859 5860 5862 5865 5867 5869 5870 5872 5873 5874 5875 5876 5877 5879 5881 5882 5883 5884 5884 5885 5886 5887 5888 5889 5890 5891 5892 5894 5895 5896 5896 5896 5896 5897 5897 5897 5897 5897 5897 5897 5897 5897 5896 5896 5895 5895 5894 5893 5891 5890 5888 5887 5885 5884 5882 5880 5877 5874 5872 5869 5866 5863 5860 5856 5852 5848 5843 5840 5836 5832 5828 5825 5823 5820 5817 5813 5809 5807 5805 5802 5797 5793
5848 5850 5852 5854 5856 5858 5860 5862 5864 5866 5868 5870 5871 5872 5873 5874 5875 5877 5878 5880 5880 5881 5882 5883 5884 5885 5886 5887 5888 5889 5890 5891 5892 5892 5892 5892 5892 5892 5892 5893 5893 5893 5893 5893 5893 5892 5892 5891 5890 5889 5888 5887 5885 5884 5882 5880 5878 5876 5874 5872 5869 5866 5863 5860 5858 5854 5850 5845 5841 5836 5833 5830 5826 5822 5819 5817 5814 5810 5807 5803 5800 5797 5794 5788 5783
5845 5847 5848 5850 5852 5853 5855 5857 5859 5861 5863 5865 5867 5869 5870 5871 5872 5873 5874 5875 5876 5878 5878 5879 5880 5881 5882 5884 5885 5886 5887 5888 5888 5888 5888 5888 5888 5889 5889 5889 5889 5889 5889 5889 5888 5888 5887 5886 5885 5884 5883 5882 5880 5879 5877 5875 5873 5870 5868 5866 5863 5860 5857 5855 5852 5848 5844 5840 5836 5831 5827 5824 5820 5816 5813 5811 5808 5805 5801 5797 5793 5789 5785 5780 5775
5842 5844 5846 5847 5849 5850 5851 5853 5855 5857 5859 5860 5862 5864 5865 5867 5868 5869 5869 5870 5872 5873 5875 5875 5876 5877 5878 5880 5881 5882 5883 5883 5883 5884 5884 5884 5884 5885 5885 5885 5885 5885 5884 5884 5883 5883 5882 5881 5880 5879 5878 5876 5875 5873 5871 5869 5867 5865 5862 5860 5857 5854 5851 5849 5845 5842 5838 5834 5830 5825 5821 5817 5814 5811 5807 5805 5803 5800 5795 5790 5786 5782 5778 5774 5768
5839 5840 5842 5844 5846 5847 5849 5850 5852 5853 5855 5856 5858 5859 5861 5862 5863 5864 5865 5866 5867 5869 5870 5871 5872 5872 5873 5875 5876 5877 5878 5878 5879 5879 5879 5880 5880 5880 5880 5881 5880 5880 5880 5879 5878 5877 5876 5876 5875 5874 5872 5871 5869 5868 5866 5864 5862 5860 5857 5854 5851 5848 5846 5842 5839 5835 5832 5828 5824 5819 5815 5811 5808 5805 5801 5799 5796 5793 5789 5785 5781 5777 5772 5768 5762
5835 5837 5838 5840 5842 5844 5845 5847 5849 5850 5851 5853 5854 5855 5856 5858 5859 5860 5861 5862 5863 5864 5865 5866 5867 5868 5869 5870 5871 5872 5873 5873 5874 5874 5875 5875 5876 5876 5876 5876 5876 5876 5875 5874 5873 5872 5871 5870 5869 5868 5867 5865 5864 5862 5860 5858 5856 5854 5851 5848 5845 5842 5839 5836 5832 5829 5826 5822 5818 5813 5809 5806 5802 5799 5795 5792 5790 5787 5784 5780 5776 5772 5768 5763 5757
5832 5833 5835 5837 5838 5840 5842 5843 5845 5846 5847 5848 5850 5851 5852 5853 5854 5855 5857 5858 5859 5860 5860 5861 5862 5863 5864 5865 5866 5867 5868 5868 5869 5870 5871 5871 5871 5871 5871 5871 5871 5871 5870 5869 5868 5867 5867 5866 5864 5863 5861 5860 5858 5856 5854 5852 5850 5848 5845 5842 5838 5835 5832 5829 5825 5822 5819 5815 5811 5807 5803 5800 5797 5793 5790 5787 5784 5781 5778 5775 5771 5768 5763 5759 5754
5828 5830 5832 5833 5835 5836 5838 5839 5841 5842 5843 5844 5845 5846 5848 5849 5850 5851 5852 5853 5854 5855 5856 5856 5858 5859 5860 5861 5862 5863 5863 5863 5864 5865 5866 5867 5866 5866 5866 5866 5866 5865 5865 5864 5863 5862 5861 5860 5859 5857 5856 5854 5852 5850 5848 5846 5844 5842 5838 5835 5831 5828 5825 5821 5818 5815 5812 5809 5805 5802 5798 5795 5792 5788 5785 5782 5779 5776 5773 5769 5766 5762 5759 5755 5751
5825 5826 5828 5829 5831 5832 5834 5835 5837 5838 5840 5841 5842 5843 5843 5844 5845 5846 5847 5848 5849 5850 5851 5852 5853 5854 5855 5856 5857 5858 5859 5859 5859 5860 5861 5861 5861 5861 5861 5861 5860 5860 5859 5859 5858 5857 5856 5854 5853 5851 5849 5848 5846 5844 5842 5840 5838 5835 5832 5828 5825 5821 5818 5815 5812 5809 5806 5802 5799 5796 5793 5790 5787 5784 5780 5777 5774 5772 5769 5765 5761 5758 5754 5750 5747
5821 5823 5824 5825 5827 5828 5830 5831 5832 5834 5835 5837 5838 5839 5839 5841 5842 5842 5843 5844 5845 5845 5846 5847 5848 5849 5850 5852 5853 5853 5854 5854 5854 5854 5855 5855 5855 5855 5855 5855 5854 5854 5854 5853 5852 5851 5850 5848 5846 5845 5843 5842 5840 5838 5836 5834 5831 5829 5826 5822 5819 5815 5812 5809 5806 5803 5799 5796 5793 5791 5788 5785 5782 5779 5776 5773 5770 5768 5765 5763 5759 5756 5751 5747 5743
5817 5818 5820 5821 5823 5824 5825 5827 5828 5830 5831 5832 5834 5835 5836 5837 5837 5838 5839 5840 5840 5841 5841 5842 5844 5845 5846 5847 5848 5848 5849 5849 5849 5849 5849 5849 5849 5849 5849 5849 5849 5848 5848 5847 5845 5844 5843 5841 5840 5838 5837 5836 5834 5832 5830 5827 5825 5822 5819 5816 5812 5809 5806 5802 5799 5796 5793 5790 5787 5784 5782 5779 5776 5773 5770 5767 5765 5763 5761 5758 5756 5753 5750 5745 5740
5812 5813 5815 5816 5818 5820 5821 5823 5824 5825 5827 5828 5829 5830 5831 5832 5833 5834 5834 5835 5835 5835 5836 5838 5839 5841 5841 5842 5843 5843 5843 5844 5844 5843 5843 5843 5843 5842 5843 5843 5842 5841 5840 5839 5838 5837 5836 5835 5834 5832 5831 5829 5828 5826 5823 5821 5818 5815 5812 5809 5806 5802 5799 5795 5792 5789 5786 5783 5780 5778 5775 5772 5770 5767 5764 5760 5757 5755 5754 5752 5750 5747 5745 5742 5739
5807 5808 5810 5811 5813 5815 5816 5818 5819 5821 5822 5823 5824 5825 5826 5827 5828 5829 5829 5829 5829 5831 5832 5833 5835 5836 5836 5836 5836 5836 5837 5838 5838 5838 5837 5837 5837 5837 5836 5836 5835 5834 5833 5832 5832 5831 5830 5828 5827 5826 5824 5823 5821 5819 5817 5814 5812 5809 5806 5802 5799 5796 5793 5789 5786 5784 5781 5778 5775 5772 5769 5767 5764 5761 5758 5754 5750 5748 5746 5744 5742 5740 5737 5735 5733
5802 5803 5804 5806 5808 5810 5811 5812 5814 5815 5817 5818 5819 5821 5821 5821 5822 5823 5824 5824 5825 5826 5828 5828 5829 5830 5831 5830 5830 5830 5830 5830 5831 5831 5831 5831 5831 5830 5829 5828 5828 5827 5827 5826 5825 5824 5823 5822 5821 5819 5817 5816 5814 5812 5810 5807 5805 5802 5799 5796 5793 5790 5787 5783 5781 5778 5776 5773 5769 5766 5763 5761 5758 5755 5753 5749 5746 5742 5740 5738 5735 5733 5730 5728 5725
5797 5798 5800 5801 5803 5804 5806 5807 5809 5810 5811 5813 5815 5815 5816 5816 5816 5817 5818 5819 5820 5821 5822 5822 5822 5823 5823 5824 5824 5823 5823 5824 5824 5824 5824 5824 5824 5823 5822 5822 5821 5821 5820 5820 5819 5817 5816 5815 5813 5812 5810 5809 5807 5805 5803 5801 5798 5796 5793 5790 5787 5784 5781 5777 5775 5772 5770 5767 5764 5760 5757 5755 5752 5749 5747 5744 5741 5738 5736 5734 5732 5729 5727 5724 5721
5791 5793 5795 5796 5798 5799 5800 5802 5803 5804 5805 5807 5808 5809 5810 5811 5811 5811 5812 5813 5813 5814 5814 5815 5815 5815 5816 5816 5817 5817 5817 5817 5818 5818 5817 5817 5817 5816 5816 5815 5815 5814 5813 5812 5811 5810 5808 5807 5806 5804 5803 5802 5800 5798 5796 5793 5791 5789 5786 5783 5780 5777 5774 5771 5768 5766 5763 5761 5757 5754 5752 5749 5747 5744 5742 5739 5737 5733 5731 5729 5727 5725 5724 5722 5719
5785 5787 5789 5791 5792 5794 5795 5796 5797 5798 5799 5800 5802 5803 5803 5804 5805 5805 5805 5805 5805 5806 5807 5807 5807 5808 5808 5809 5809 5810 5810 5811 5811 5811 5810 5810 5810 5809 5809 5808 5808 5807 5805 5804 5803 5802 5801 5800 5798 5797 5796 5794 5792 5790 5788 5786 5784 5782 5779 5777 5774 5771 5768 5765 5762 5760 5757 5754 5751 5749 5746 5744 5741 5739 5736 5734 5732 5730 5727 5724 5722 5720 5719 5718 5717
5779 5781 5783 5785 5786 5788 5789 5790 5791 5792 5793 5794 5795 5796 5797 5797 5798 5798 5798 5798 5798 5799 5799 5799 5800 5800 5801 5802 5803 5803 5803 5803 5803 5803 5803 5802 5802 5801 5801 5800 5799 5798 5797 5796 5796 5795 5793 5792 5791 5789 5788 5786 5785 5783 5781 5779 5777 5775 5772 5769 5766 5764 5761 5758 5756 5754 5751 5748 5745 5743 5740 5738 5736 5734 5731 5729 5727 5725 5723 5721 5718 5716 5714 5713 5712
5773 5775 5776 5778 5780 5781 5783 5784 5785 5785 5786 5788 5789 5789 5790 5790 5790 5790 5790 5790 5791 5791 5792 5792 5793 5794 5794 5795 5795 5796 5795 5795 5795 5795 5795 5794 5794 5793 5793 5792 5791 5790 5789 5789 5788 5787 5786 5785 5783 5782 5780 5779 5777 5775 5773 5772 5769 5767 5765 5762 5759 5756 5754 5752 5749 5747 5745 5742 5740 5737 5735 5733 5731 5728 5726 5724 5722 5720 5718 5716 5714 5712 5710 5708 5707
5767 5769 5770 5771 5773 5774 5775 5777 5778 5779 5780 5781 5782 5782 5782 5782 5782 5781 5781 5782 5783 5783 5784 5785 5786 5787 5787 5788 5788 5787 5787 5787 5787 5787 5787 5786 5786 5785 5785 5784 5783 5783 5782 5781 5780 5779 5778 5777 5776 5774 5773 5771 5770 5768 5766 5764 5761 5759 5757 5754 5751 5749 5747 5745 5743 5740 5738 5736 5733 5731 5729 5727 5725 5723 5721 5719 5717 5715 5713 5711 5709 5707 5705 5703 5701
5762 5763 5764 5764 5765 5766 5767 5769 5770 5772 5773 5774 5774 5774 5774 5774 5774 5774 5774 5774 5775 5776 5777 5777 5778 5779 5779 5779 5779 5779 5779 5779 5779 5779 5779 5778 5778 5777 5777 5776 5776 5775 5774 5773 5772 5771 5770 5769 5768 5766 5765 5763 5762 5760 5757 5755 5753 5751 5748 5746 5744 5742 5740 5738 5736 5733 5731 5729 5726 5724 5722 5721 5719 5717 5715 5713 5711 5709 5708 5706 5705 5703 5701 5699 5697
5756 5758 5758 5758 5758 5759 5760 5761 5762 5763 5764 5765 5766 5766 5766 5766 5767 5767 5766 5767 5768 5768 5769 5770 5770 5771 5771 5771 5771 5771 5771 5771 5771 5771 5770 5770 5770 5769 5769 5768 5768 5767 5766 5765 5764 5763 5762 5761 5759 5757 5756 5755 5753 5751 5749 5747 5745 5743 5740 5738 5736 5734 5732 5730 5728 5726 5724 5722 5719 5718 5716 5715 5713 5711 5709 5707 5705 5704 5702 5701 5699 5698 5696 5694 5693
5749 5750 5751 5752 5752 5752 5753 5753 5754 5755 5756 5756 5757 5757 5758 5758 5758 5758 5759 5759 5760 5760 5761 5761 5762 5762 5762 5763 5763 5762 5762 5762 5762 5762 5761 5761 5760 5761 5760 5760 5759 5759 5758 5757 5756 5755 5753 5752 5750 5749 5747 5745 5744 5742 5741 5739 5737 5735 5733 5730 5728 5726 5724 5722 5720 5719 5716 5714 5712 5711 5710 5708 5707 5705 5703 5701 5699 5697 5696 5694 5693 5691 5690 5688 5687
5740 5741 5742 5744 5744 5744 5745 5746 5746 5747 5748 5748 5748 5749 5749 5749 5749 5750 5750 5750 5751 5752 5752 5753 5753 5754 5754 5754 5754 5754 5754 5753 5753 5753 5753 5752 5752 5752 5751 5751 5750 5750 5749 5748 5747 5746 5744 5743 5741 5740 5738 5736 5735 5734 5732 5731 5729 5727 5725 5723 5721 5718 5716 5714 5712 5710 5708 5706 5704 5703 5702 5701 5700 5698 5697 5695 5693 5691 5690 5688 5686 5685 5683 5682 5681
5731 5732 5733 5734 5735 5736 5736 5737 5738 5739 5739 5739 5739 5739 5739 5740 5740 5740 5741 5742 5742 5743 5743 5744 5745 5745 5745 5745 5745 5745 5745 5745 5745 5745 5745 5744 5744 5743 5743 5742 5741 5741 5740 5739 5738 5736 5735 5734 5732 5731 5729 5728 5726 5725 5723 5722 5720 5718 5716 5715 5713 5710 5708 5706 5704 5702 5700 5698 5697 5696 5695 5695 5693 5692 5690 5688 5687 5686 5684 5682 5681 5679 5678 5676 5675